Forum


Ask a question

No. FLOSS Question Date
Views
Answers
1 DWSIM Transient simulations and Stream wise report 2015-10-21 07:04:10.000000 2582 1
2 DWSIM TEXTBOOK COMPANION INTERNSHIP 2015-12-23 17:35:03.000000 2236 1
3 DWSIM Unavailability of compounds in Database 2015-12-24 14:14:49.000000 2958 2
4 DWSIM Conversion of Reaction 2016-01-04 14:31:49.000000 2617 1
5 DWSIM Textbook companion project 2016-02-10 13:38:57.000000 2219 2
6 DWSIM Equilibrium reactor simulation 2016-02-26 15:40:26.000000 5820 2
7 DWSIM Creating component hypothetically 2016-04-22 09:22:23.000000 4546 2
8 DWSIM How to install and run DWSIM on MAC AIR? 2016-04-25 10:40:30.000000 2493 2
9 DWSIM New Compound Creator Study 2016-05-26 11:56:10.000000 3370 1
10 DWSIM FLASH DRUM SEPARATOR 2016-12-03 02:40:31.000000 2119 1
11 DWSIM OPEN SOURCE APPLICATION 2016-12-03 04:08:30.000000 2010 5
12 DWSIM HEAT EXCHANGER 2016-12-04 05:57:37.000000 2175 1
13 DWSIM SIMULATION inquiry 2016-12-29 06:53:02.000000 1979 2
14 DWSIM RECYCLE STREAM 2017-01-10 04:40:53.000000 3015 1
15 DWSIM DWSIM components 2017-03-08 14:13:14.000000 2124 2
16 DWSIM Unbalanced equation 2017-03-19 14:23:10.000000 1898 2
17 DWSIM Multi component Distillation 2017-04-25 12:11:09.000000 2212 1
18 DWSIM double clicking not opening main editing window 2017-05-12 02:47:51.000000 1810 1
19 DWSIM step size becomes too small error in plug flow reactor 2017-05-14 05:44:09.000000 2024 1
20 DWSIM Assigning operating pressure for distillation column 2017-07-26 18:58:47.000000 1903 1
21 DWSIM Regarding Submission of flow sheet and its deadline. 2017-08-07 15:00:09.000000 1764 1
22 DWSIM internship details 2017-08-14 14:13:59.000000 1720 1
23 DWSIM can we use DWSIM for simulutions for a spray or rotay drier systems 2017-09-07 08:36:51.000000 2106 1
24 DWSIM Three phase library open-source 2017-09-13 14:22:23.000000 1781 1
25 DWSIM Three phase open-source library 2017-09-13 14:22:55.000000 1706 1
26 DWSIM Issue in DWSIM Software Installation 2017-10-02 05:45:54.000000 1861 1
27 DWSIM Downloading the Tutorials 2017-10-03 13:49:40.000000 1844 1
28 DWSIM DWSIM for membrane separation 2017-10-30 17:26:45.000000 2635 1
29 DWSIM can you suggest me the solution for the error I'm getting while designing methanol synthesis process ? 2017-12-22 12:22:28.000000 1719 1
30 DWSIM Displaying reaction results 2017-12-31 08:31:37.000000 1666 1
31 DWSIM PFR step size error 2018-01-11 10:26:39.000000 1702 1
32 DWSIM Rigorous Distillation 2018-01-12 06:01:32.000000 2037 2
33 DWSIM Kinetic reaction 2018-01-21 05:17:44.000000 1791 1
34 DWSIM Proble with opening DWSIM file into software 2018-02-02 07:11:26.000000 2017 1
35 DWSIM Dehydration Plant 2018-02-19 15:29:52.000000 1670 1
36 DWSIM Dehydration Plant Simulation 2018-02-27 14:03:49.000000 1605 2
37 DWSIM CATALYST is not present 2018-03-21 18:44:11.000000 1834 2
38 DWSIM About unit operations in DWSIM 2018-04-03 12:00:22.000000 1807 1
39 DWSIM Regarding adding compuonds in DWSIM 2018-04-04 11:45:22.000000 3451 1
40 DWSIM Brine evaporation in DWSIM 2018-04-21 04:54:02.000000 1679 1
41 DWSIM UNIQUAC package with default flash doesnot converge. 2018-05-17 18:37:34.000000 1706 3
42 DWSIM Conversion reactor 2018-05-21 20:31:08.000000 1686 4
43 DWSIM fixing the output data for a given problem 2018-05-26 17:18:25.000000 1519 1
44 DWSIM separator column in compound separater 2018-05-26 18:24:56.000000 1619 1
45 DWSIM Crude Desalter Simulator 2018-05-27 06:17:30.000000 1692 1
46 DWSIM help about vinyl chloride 2018-05-28 18:01:35.000000 1566 1
47 DWSIM Compound not available 2018-06-01 17:08:01.000000 1983 1
48 DWSIM Bubble Column Reactor Substitute 2018-06-20 05:45:42.000000 1760 1
49 DWSIM Python Documentation For DWSIM 2018-06-21 06:57:47.000000 2100 1
50 DWSIM Simulating a condensor 2018-06-24 04:42:34.000000 1792 1
51 DWSIM About internship's forms 2018-07-05 10:00:45.000000 1675 1
52 DWSIM Pipe unit operation 2018-07-14 14:42:47.000000 1840 1
53 DWSIM about a scrubber design 2018-07-22 15:53:53.000000 2102 1
54 DWSIM about flowsheet submission 2018-07-29 12:56:35.000000 1872 1
55 DWSIM Development of graphical user interface in Excel 2018-08-24 08:45:45.000000 1632 1
56 DWSIM Simulation of process model for n number of data points or observations 2018-08-24 08:51:16.000000 1604 1
57 DWSIM Error in stichiometry 2018-08-24 09:17:41.000000 1687 3
58 DWSIM doubt regarding reaction furnace and condenser 2018-09-15 14:15:00.000000 1623 1
59 DWSIM error in LLE ternary graph utility 2018-10-08 15:22:17.000000 2065 2
60 DWSIM error in a kinetic reaction 2018-11-01 11:40:17.000000 1726 1
61 DWSIM Rigourous Distillation column error with image file 2018-11-21 12:52:40.637300 1880 1
62 DWSIM find the enthalpy in python script 2018-12-04 04:49:54.852579 1643 1
63 DWSIM Problem with "Valve" 2018-12-05 08:35:47.995121 1775 3
64 DWSIM DWSIM Wastewater treatment process 2018-12-19 20:43:41.379014 1884 1
65 DWSIM upload user define compound 2018-12-23 06:48:53.388854 1523 1
66 DWSIM Issues related to DWSIM in mac 2019-01-08 15:36:26.443308 1572 2
67 DWSIM equillibrium reactor 2019-03-12 18:01:08.763284 1997 2
68 DWSIM Reaction manager 2019-03-26 16:30:04.686962 1906 1
69 DWSIM Not able to download the codes for Textbook Companion Project 2019-04-24 04:06:12.674019 1483 1
70 DWSIM classic extractive distillation with 2 simple columns,  with water, ethanol and benzene 2019-04-28 20:10:56.613384 1772 1
71 DWSIM Custom modeler 2019-05-17 15:03:35.785255 1479 1
72 DWSIM R.O desalination 2019-05-17 15:32:40.033347 1477 1
73 DWSIM Error while accessing compounds 2019-06-26 17:38:39.404765 1402 1
74 DWSIM Not responding error 2019-06-29 10:33:49.500974 1525 4
75 DWSIM .ERROR IN POWER CALC OF PUMP 2019-07-09 13:34:58.961977 1365 1
76 DWSIM chemicals and thermodynamic 2019-07-28 18:10:08.125386 1648 1
77 DWSIM How to add a Component Splitter 2019-09-17 14:20:25.989936 1563 1
78 DWSIM CAPE-OPEN Unit Operations 2019-09-17 14:27:21.315684 2079 6
79 DWSIM Using a custom compound 2019-10-10 13:51:25.781544 1493 2
80 DWSIM Automation of compound separator 2019-12-04 16:45:48.004921 1312 1
81 DWSIM Error while opening "Open Python Script Editor" 2019-12-06 10:59:07.175921 1325 1
82 DWSIM Reaction manager in Mac os 2020-01-18 06:17:01.979261 1334 3
83 DWSIM Amberlyst and sulfuric acid are not available in the list, how to proceed. 2020-02-18 12:57:36.985693 1253 2
84 DWSIM Flowsheet proposal form submitted but one of the compounds to be used was left out due to some error.how to correct it ? 2020-02-24 06:28:10.536173 1411 1
85 DWSIM Syntheis/production of ammonium nitrate 2020-03-26 11:25:15.695498 1295 2
86 DWSIM Polymer Component creator 2020-04-27 07:18:37.359744 1386 6
87 DWSIM Error in Equilibrium Reactor 2020-05-04 09:50:58.977275 1209 1
88 DWSIM PVC Component 2020-05-12 03:20:25.884525 1207 1
89 DWSIM 3-phase separator 2020-05-13 21:39:23.441675 1529 3
90 DWSIM Regarding Optimization Tool 2020-06-13 14:05:17.037310 1143 2
91 DWSIM Heterogeneous Catalytic Error tf=t0 2020-07-01 12:04:51.522563 1219 1
92 DWSIM simulation inspector 2020-07-09 09:31:46.110072 1145 1
93 DWSIM DWSIM installation Error 2020-07-13 09:42:24.351430 1450 2
94 DWSIM NEW COMPOUND ADD 2020-07-18 05:38:09.003950 1158 1
95 DWSIM How to model Pc Shaft in Dwsim updated version. 2020-07-24 06:49:46.572296 1104 2
96 DWSIM I have installed and configured GNU Octave but i cant able to model pc shaft 2020-07-25 07:25:50.543967 1101 2
97 DWSIM Using temperature dependent function of K in Equilibrium Reactor 2020-07-27 15:39:22.651480 1126 1
98 DWSIM Thermodynamic property package selection 2020-07-31 10:07:44.769359 1196 1
99 DWSIM Error in Density calculation 2020-08-12 11:50:43.803540 1064 1
100 DWSIM Error in adding connections to Cape_Open Objects 2020-08-15 16:21:07.611742 1297 4
101 DWSIM Biomass pirolisis 2020-08-15 21:08:34.641687 1220 8
102 DWSIM Solid phase reactions 2020-08-15 21:10:04.899060 3 0
103 DWSIM The tab for binary phase envelope is not visible on reopening the dwxml file. 2020-08-19 08:03:36.322543 1069 1
104 DWSIM REGARDING INTERNSHIP FORMS. 2020-08-19 17:46:33.219360 1103 1
105 DWSIM Parallel reaction in Heterogeneous catalytic reaction 2020-08-25 15:26:48.648522 1304 1
106 DWSIM heterogeneous catalyst 2020-08-28 03:42:52.065100 1149 2
107 DWSIM centrifugal pump 2020-08-29 05:54:48.288126 1149 1
108 DWSIM ADDING A COMPOUND 2020-08-31 16:26:54.506769 1100 1
109 DWSIM I have problems changing the compunds in a existing model? 2020-09-02 14:03:22.984586 1150 3
110 DWSIM Object reference not set to an instance of an object? 2020-09-05 09:41:27.570387 1493 2
111 DWSIM WHAT TO USE FOR EVAPORATOR 2020-09-05 17:34:18.694008 1168 2
112 DWSIM How to sort component list (Selected compounds)? 2020-09-06 01:27:35.754171 1045 3
113 DWSIM Object reference not set to an instance of an object??? 2020-09-07 04:46:03.385333 737 1
114 DWSIM OBJECT REFERENCE NOT SET TO AN INSTANCE OF AN OBJECT 2020-09-07 06:39:24.946329 734 1
115 DWSIM Installation of DWSIM 2020-09-07 07:50:10.069804 1126 1
116 DWSIM Unable to use 32 bit C++ DLL in DWSIM5 source code. 2020-09-09 07:11:00.091876 1104 1
117 DWSIM flash algorithm not appering dwsim 2020-09-13 13:52:05.963393 1792 1
118 DWSIM property pacakge 2020-09-16 05:59:58.299010 1124 3
119 DWSIM Editing Appearance of Units 2020-09-17 09:31:38.391069 3 0
120 DWSIM How to add Sucrose compound to the Database? 2020-09-18 16:05:48.152686 1113 1
121 DWSIM the flash algorithm not appering dwsim 2020-09-24 06:28:40.311898 1135 1
122 DWSIM Formalin simulation 2020-09-24 20:58:03.321565 1027 1
123 DWSIM few options not available 2020-09-26 09:32:30.079705 978 1
124 DWSIM Compound/component mapping 2020-09-28 14:28:26.787545 1063 3
125 DWSIM Absorber simulation in version 6.1 2020-10-04 16:59:22.755293 1012 1
126 DWSIM Extractive Distillation converging 2020-10-06 12:29:32.409991 957 1
127 DWSIM RadFrac Model 2020-10-08 09:54:11.205926 1067 3
128 DWSIM LINUX MANJARO 2020-10-12 04:38:41.183491 1292 5
129 DWSIM Adding Oil compound to DWSIM 2020-11-02 04:59:21.376882 1052 2
130 DWSIM Hello, I would like to know what kind of databases can be linked with DWSIM, I need an urgent answer. Thank you very much in advance. 2020-11-09 11:57:25.426753 948 2
131 DWSIM Free ringtone website you know? 2020-11-22 01:58:03.627882 952 8
132 DWSIM Plug flow reactor in DW Sim 2020-11-27 04:16:22.377541 987 1
133 DWSIM Cooling tower 2020-12-09 03:41:17.640123 1122 1
134 DWSIM Destilación Reactiva en Chemsep 2020-12-09 19:58:23.158354 936 2
135 DWSIM Cannort import python files present in lib folder in ironpython 2020-12-11 17:27:50.727980 889 1
136 DWSIM multiplying flows 2021-01-08 12:44:59.396664 898 3
137 DWSIM DWSIM Excel add-in 2021-01-14 10:46:01.850262 944 1
138 DWSIM EXERGY ANALYSIS 2021-02-01 03:27:05.455142 923 2
139 DWSIM How to model sodium phenolate 2021-02-05 05:28:07.187349 812 3
140 DWSIM Combining two DWSIM files 2021-02-08 08:11:59.577625 828 4
141 DWSIM Error on Chemsep Absorption Column 2021-02-11 21:43:39.976090 886 3
142 DWSIM Supplying exothermic energy reaction from the burner to the PFR 2021-02-16 06:29:16.896471 821 1
143 DWSIM I want to change number of input ?. 2021-02-20 11:53:50.998482 794 2
144 DWSIM Equilibirum Reactor energy flow 2021-02-22 05:12:40.258729 842 1
145 DWSIM SCILAB in DWSim 6.3 2021-03-02 09:01:44.091153 778 1
146 DWSIM How to model and simulate absorption refrigeration system in DWSIM or Aspen Plus 2021-03-04 17:56:04.143537 841 3
147 DWSIM Help! Error in CAPE Open Unit Operation 2021-03-05 06:29:56.437602 1008 2
148 DWSIM Which property package do you recommend for liquid phase systems and reactions? 2021-03-10 17:49:53.055602 906 8
149 DWSIM Create a reaction 2021-03-11 20:18:33.135134 823 2
150 DWSIM Controller block on DWSIM for Mac 2021-03-26 19:56:40.677071 977 3
151 DWSIM Problema no modelo cinético catalítico heterogêneo - Reator de amônia 2021-03-27 01:16:25.356295 1243 10
152 DWSIM Installation Issue in MacBook with M1 2021-04-04 06:02:19.717015 887 8
153 DWSIM ABS-01: Object reference not set to an instance of an object 2021-04-08 18:48:42.199261 753 1
154 DWSIM Issue with CSTR!!! 2021-04-14 04:15:16.612554 748 2
155 DWSIM modification in firmware for pwm freq setup ?. 2021-04-15 12:26:15.362626 693 2
156 DWSIM URGENT HELP NEEDED: In selected components in CAPE OPEN simulation component are shown as dummy 1 and dummy 2. So, what might be the problem? 2021-04-17 03:58:38.784572 783 3
157 DWSIM Recycle block not functioning 2021-04-18 05:00:10.766041 913 2
158 DWSIM Liquid-liquid extraction 2021-04-19 19:51:41.760567 961 2
159 DWSIM CAPE OPEN Block (Chemsep Column) - Error 2021-04-21 16:10:42.892071 848 3
160 DWSIM Error while installation of version 6.4.8 2021-04-25 08:34:49.684175 679 1
161 DWSIM Conversion expression 2021-04-25 08:43:52.602818 702 3
162 DWSIM material balance for a component is not balanced 2021-04-25 19:11:48.512545 760 2
163 DWSIM Crude oil Flash in Tank 2021-04-28 14:20:11.008605 747 2
164 DWSIM Re-initialization 2021-04-29 10:04:24.098771 706 2
165 DWSIM How can I select a catalyst Catalyst 2021-04-29 10:13:23.087114 781 4
166 DWSIM Flash Drum Upstream Pressure effect 2021-05-03 00:19:51.088034 766 4
167 DWSIM Flowsheet calculation error 2021-05-08 12:49:11.590819 686 3
168 DWSIM The case which an error occurred only in the newest version of DWSIM 2021-05-10 00:45:03.665614 705 4
169 DWSIM Installation of DWSIM latest version on my MacBook pro 2021-05-16 16:46:04.770360 698 2
170 DWSIM Using ChemCad for absorption involving Henry constant's 2021-05-20 05:13:18.515463 709 2
171 DWSIM biomass gassification 2021-05-26 08:00:16.570327 707 2
172 DWSIM Water saturation model not running 2021-06-02 14:57:23.294871 738 1
173 DWSIM Error in DWSIM Open-CAPE editor 2021-06-12 16:04:39.793981 725 1
174 DWSIM Dynamic Error in Heat Exchanger 2021-06-15 07:31:32.947108 620 3
175 DWSIM Reactive equilibrium column 2021-06-17 16:00:30.228726 642 1
176 DWSIM introducing reactions involving ionic species in absorber column 2021-06-21 05:13:35.925305 669 1
177 DWSIM best ayurvedic treatment for psoriasis in bangalore 2021-06-23 14:31:15.262698 15 0
178 DWSIM best rheumatoid arthritis treatment in bangalore 2021-06-23 14:32:05.288304 16 0
179 DWSIM CAPE OPEN unit operation (ChemSep column) - Error not responding 2021-06-23 17:43:10.121503 647 2
180 DWSIM Error in DWSIM in Liquid - Liquid Extraction 2021-06-24 07:55:54.519595 719 3
181 DWSIM Error while creating new compound (Fe and Fe2O3) 2021-06-25 12:59:13.555023 615 1
182 DWSIM Steps to add hypo components 2021-06-25 17:39:56.238700 610 1
183 DWSIM How do I add a filter separator in DWSIM 2021-06-25 17:47:02.436620 606 1
184 DWSIM Flash algorithm not found 2021-06-26 07:20:16.270799 626 4
185 DWSIM Error while creating material streams 2021-06-27 04:59:44.050425 610 1
186 DWSIM Error in stoichiometry 2021-06-28 09:13:52.017628 632 1
187 DWSIM Results for vapour-liquid separator are showing zero molar flow rates for components in liquid streams 2021-07-02 04:39:16.616010 652 2
188 DWSIM PSV valves in DWSIM 2021-07-03 11:03:35.272720 677 1
189 DWSIM Biomass pyrolysis process 2021-07-04 06:04:00.058688 727 1
190 DWSIM Input stream value changes over time simulation 2021-07-08 05:09:45.969819 575 1
191 DWSIM Phthalic Anhydride 2021-07-10 06:02:52.906384 728 1
192 DWSIM sugar simulation 2021-07-10 11:58:57.342566 604 3
193 DWSIM Therminol np-1 could not found 2021-07-17 10:02:41.700514 593 3
194 DWSIM PLUG FLOW REACTOR 2021-07-20 07:51:28.443883 2 0
195 DWSIM CSTR-Error is popping up 2021-07-20 10:01:37.613702 2 0
196 DWSIM CSTR -different answer 2021-07-20 10:38:36.586550 620 6
197 DWSIM Adding compounds 2021-07-21 02:39:13.312148 565 1
198 DWSIM Absorption column 2021-07-21 07:41:53.671778 627 1
199 DWSIM Flow sheet proposal query 2021-07-21 08:47:33.568873 4 0
200 DWSIM Absorption column-edit appearance 2021-07-21 10:49:55.566096 590 1
201 DWSIM Heterogeneous Catalytic Liquid Phase Reaction - Concentration Profile false 2021-07-22 01:26:29.555336 727 16
202 DWSIM Adding compounds-query 2021-07-22 04:10:33.432441 577 1
203 DWSIM Convergence Error 2021-08-02 08:21:24.353130 616 2
204 DWSIM error pops up like this-infinite loop detected, place recycle blocks 2021-08-04 09:34:01.507091 625 4
205 DWSIM query regarding condenser and reboiler 2021-08-04 13:47:19.856260 570 3
206 DWSIM Index was out of bound array, increasing iterations of compressor 2021-08-06 05:49:19.102570 556 2
207 DWSIM Index was outside the bounds of array 2021-08-09 06:07:30.577028 620 2
208 DWSIM No reply for query 2021-08-11 03:12:30.236361 54 0
209 DWSIM Catalytic parallel Reaction in PFR reactor 2021-08-17 15:59:40.698756 733 6
210 DWSIM How attach DWSIM Simulation file to a post 2021-08-27 15:16:24.936688 509 2
211 DWSIM waiting for approval 2021-09-03 02:36:47.928666 515 2
212 DWSIM CO2 scrubbing from hydrocarbon stream 2021-09-06 10:15:16.067117 567 5
213 DWSIM Error "casting string "1.0" to type "Double" is invalid" 2021-09-11 22:16:22.796655 605 23
214 DWSIM Parallel and series reactions 2021-09-13 09:29:23.952153 575 7
215 DWSIM Multitube PFR 2021-09-13 09:33:24.929447 583 6
216 DWSIM Get A Solution Of Amazon Kindle Technical Glitches To Fix Issue 2021-09-14 10:28:47.387554 16 0
217 DWSIM Need Online SAP Course in Nagpur 2021-09-27 14:54:14.546118 30 4
218 DWSIM Fix McAfee Issues By www.McAfee/Active Team 2021-09-28 09:30:25.961437 32 1
219 DWSIM Amine Processing 2021-10-06 09:11:59.485106 497 3
220 DWSIM adjust optimize 2021-10-07 20:53:39.715811 439 2
221 DWSIM How can I add aluminum sulfate to the stream 2021-10-18 11:29:03.512637 456 3
222 DWSIM Temperature did not converge. 2021-10-23 11:16:31.570535 485 3
223 DWSIM How can I judge that the gas or solution is a polar system? 2021-10-25 06:42:18.392100 490 9
224 DWSIM Valve converge issues 2021-11-02 04:42:15.081085 469 10
225 DWSIM Gas turbine SFC parameter 2021-11-19 11:13:26.271226 382 2
226 DWSIM How to install Spotify Premium apk mobile app 2021-11-20 08:12:30.633455 3 0
227 DWSIM Oil Stabilization Process Design 2021-11-25 09:32:03.719928 346 2
228 DWSIM Could not find chemical reaction manager in tools 2021-11-25 10:45:48.057940 387 3
229 DWSIM How to add algal oil 2021-11-27 05:30:22.140084 378 3
230 DWSIM Error Type - Input string was not in correct format 2021-12-02 19:35:31.934388 367 4
231 DWSIM Pressure fluctuations inside the pipe in dwsim 2021-12-05 04:55:08.909369 362 4
232 DWSIM Pressure profile inside a pipe 2021-12-05 08:35:59.477491 437 5
233 DWSIM Distillation Error 2021-12-06 20:39:15.663381 358 2
234 DWSIM DWSIM - Shortcut distillation - affectation of HK and LK constraints 2021-12-08 09:26:08.954825 3 0
235 DWSIM error while simulating CSTR 2021-12-15 04:15:39.409254 364 8
236 DWSIM Debugging and running an absorber simulation 2021-12-15 15:51:11.321952 364 6
237 DWSIM GTA San Andreas MOD APK 2021-12-22 08:27:52.092805 12 1
238 DWSIM Help modelisation cooling tower 2021-12-25 14:25:51.592591 378 7
239 DWSIM Distillation using MacOS v7.1.2 2021-12-29 14:41:26.282683 327 4
240 DWSIM Constant-volume heat transfer or constant-volume combustion (like Otto Cycle) 2022-01-13 08:38:25.585145 371 23
241 DWSIM Top 4 Article Writing Services 2022-01-21 14:30:12.513270 298 2
242 DWSIM benefits of salesforce in b2b business 2022-01-22 13:43:36.135239 331 7
243 DWSIM Conversion rate is 0% for PFR 2022-01-30 19:50:59.696782 368 22
244 DWSIM CAPE-OPEN Unit Operation 2022-03-05 18:08:18.402424 245 6
245 DWSIM Game Guide - this is a famous gaming site specializing in sharing game experience 2022-03-07 09:31:00.856021 228 3
246 DWSIM Gas storage issue 2022-03-17 13:59:38.411454 275 8
247 DWSIM Considerations for pressure drop and vapor fractions in DWISM simulation 2022-03-22 06:45:00.471399 233 4
248 DWSIM Heat Transfer through Composite wall 2022-03-23 09:21:41.665041 260 4
249 DWSIM Steam-NG Reforming 2022-03-24 10:04:12.236834 229 1
250 DWSIM All Free Fire characters 2022-03-26 14:11:58.305734 226 6
251 DWSIM Pipe Network Operation 2022-03-27 04:24:34.308385 201 1
252 DWSIM volumetric flow rate in two phase pipe flow with cyclic boundary conditions 2022-04-03 06:18:03.137874 176 2
253 DWSIM ChemSep for macOS 2022-04-05 10:47:24.755472 184 2
254 DWSIM Using DWSIM for simulation of steel plant 2022-04-07 04:36:43.706265 183 1
255 DWSIM Reproducing results with DWSIM 2022-04-12 10:48:43.281745 166 3
256 DWSIM Problem in DWSim- Wine 2022-05-06 04:55:19.788910 142 9
257 DWSIM Avail the Best Online Assignment Help At Affordable Prices. 2022-05-07 05:07:55.370243 118 13
258 DWSIM How do I find affordable web development services? 2022-05-26 10:08:21.608638 43 2
259 DWSIM Power BI-Communication between Power BI embedded and host page 2022-06-02 09:57:36.973282 27 1
260 DWSIM Best Invoice Software 2022-06-02 12:37:43.617516 17 1
261 DWSIM Benchmark Attestation Services 2022-06-08 05:52:34.690866 2 0
262 DWSIM dwsim not available now 2022-06-10 14:10:46.742135 69 2
263 DWSIM Add new compounds in DWSIM 2022-06-10 15:03:19.946529 109 22
264 DWSIM Oxidised Jewelry Online 2022-06-22 09:18:37.990607 5 0
265 DWSIM Regarding DWSIM Tutorials 2022-06-22 13:17:06.295623 41 2
266 DWSIM Must-Visit Attractions in Nepal - Culture Trip 2022-06-23 06:08:09.718019 17 1
267 DWSIM https://patchcracks.com/software-mac-os-bandicam-screen-recorder-download/ 2022-07-01 05:41:24.917673 16 0
268 DWSIM Error in PFR 2022-07-02 17:20:43.625567 10 1